Regional Weather Roundup
Issued by NWS

Home | Current Version | Previous Version | Graphics & Text | Print | Product List | Glossary On
Versions: 1 2 3 4 5 6 7 8 9 10 11 12 13 14 15 16 17 18 19 20 21 22 23 24 25 26 27 28 29 30 31 32 33 34 35 36 37 38 39 40 41 42 43 44 45 46 47 48 49 50
000
ASUS43 KIND 030609
RWRIN

WEATHER ROUNDUP FOR INDIANA
NATIONAL WEATHER SERVICE INDIANAPOLIS IN
200 AM EDT THU SEP 03 2015

NOTE: "FAIR" INDICATES FEW OR NO CLOUDS BELOW 12,000 FEET WITH NO
SIGNIFICANT WEATHER AND/OR OBSTRUCTIONS TO VISIBILITY.

* - STATION DOES NOT REPORT WEATHER SUCH AS PRECIPITATION OR FOG.

+ - STATION NOT QUALITY CONTROLLED BY THE NATIONAL WEATHER SERVICE.
    USE DATA WITH CAUTION...ESPECIALLY DEWPOINT AND RELATIVE
    HUMIDITY OBSERVATIONS.

INZ001>003-010>013-019-020-030700-
NORTHWEST INDIANA

CITY           SKY/WX    TMP DP  RH WIND       PRES   REMARKS
GARY /AIRPORT/ FAIR      78  68  72 CALM      29.98S
KNOX *+        FAIR      72  70  94 S3        29.99S
LA PORTE +     FAIR     N/A N/A N/A CALM      30.00S
MICHIGAN CITY+ FAIR      73  66  78 S5        29.99S
MONTICELLO +   FAIR      74  70  87 S5        30.00S
6HR MIN TEMP:  73; 6HR MAX TEMP:  83;

RENSSELAER +   FAIR      73  72  94 SW3       30.00S
VALPARAISO     FAIR      74  69  85 SW3       30.00S
6HR MIN TEMP:  73; 6HR MAX TEMP:  84;


$$

LMZ046-743>745-030700-
SOUTHERN LAKE MICHIGAN

STATION/POSITION TIME  TEMP    WIND        PRES    WAVE
                       AIR SEA DIR/SP/G            HT
                 (UTC) (F)     (DEG/KT/KT) (MB)    (FT)
BURNS HARBOR     0500   78     190/  8/ 11 1015.2
MICHIGAN CITY    0500   80     160/ 11/ 13   N/A
5NW MICH CITY    0600   76 73  210/  6/  8   N/A     1

$$

INZ004-005-014>016-021>024-030700-
NORTH CENTRAL INDIANA

CITY           SKY/WX    TMP DP  RH WIND       PRES   REMARKS
GOSHEN         FAIR      71  68  90 CALM      30.00S
6HR MIN TEMP:  70; 6HR MAX TEMP:  81; 6HR PCP: TRACE;

LOGANSPORT +   FAIR      68  64  88 S6        30.02S
PERU/GRISSOM   FAIR      71  68  90 SW5       30.00F
6HR MIN TEMP:  71; 6HR MAX TEMP:  81; 6HR PCP: TRACE;

ROCHESTER +    FAIR      77  70  78 S5        30.01F
SOUTH BEND     FAIR      74  68  81 SW6       30.00S
6HR MIN TEMP:  72; 6HR MAX TEMP:  82;

WARSAW +       FAIR      72  68  88 CALM      30.01S

$$

INZ006>009-017-018-025>027-030700-
NORTHEAST INDIANA

CITY           SKY/WX    TMP DP  RH WIND       PRES   REMARKS
ANGOLA *+      CLEAR     70  61  73 CALM      30.01R
AUBURN +       FAIR      70  68  94 CALM      30.01F FOG
FORT WAYNE     FAIR      72  68  87 S6        30.01F
6HR MIN TEMP:  72; 6HR MAX TEMP:  81;

HUNTINGTON +   FAIR      73  66  80 SW3       30.01S
6HR MIN TEMP:  70; 6HR MAX TEMP:  81;


$$

INZ028-029-035-036-043>045-051>053-030700-
WEST CENTRAL INDIANA

CITY           SKY/WX    TMP DP  RH WIND       PRES   REMARKS
CRAWFORDSVL +  FAIR      64  64 100 CALM      30.03S FOG
6HR MIN TEMP:  64; 6HR MAX TEMP:  73;

GREENCASTLE +  FAIR      64  63  94 CALM      30.03F FOG
LAFAYETTE      FAIR      70  68  93 CALM      30.00F
6HR MIN TEMP:  70; 6HR MAX TEMP:  83;

TERRE HAUTE    FAIR      66  65  96 CALM      30.01F
6HR MIN TEMP:  66; 6HR MAX TEMP:  83;


$$

INZ030>032-037>040-046>048-054>057-064-065-030700-
CENTRAL INDIANA

CITY           SKY/WX    TMP DP  RH WIND       PRES   REMARKS
FISHERS *+     FAIR      68  68 100 CALM      30.02
FRANKFORT +    FAIR     N/A N/A N/A CALM      30.04S HAZE
GREENWOOD *+   FAIR      68  64  88 CALM      30.04S
INDIANAPOLIS   FAIR      73  68  84 S3        30.02F
6HR MIN TEMP:  72; 6HR MAX TEMP:  82;

-EAGLE CREEK   FAIR      70  69  97 CALM      30.02F FOG
6HR MIN TEMP:  70; 6HR MAX TEMP:  84;

KOKOMO *+      FAIR      70  64  83 S5        30.02S
6HR MIN TEMP:  70; 6HR MAX TEMP:  82;

MARION +       FAIR      67  62  82 S3        30.02F
MT COMFORT *+  FAIR      68 N/A N/A CALM      30.04S
SHELBYVILLE    FAIR      68  65  90 CALM      30.02F
6HR MIN TEMP:  68; 6HR MAX TEMP:  83;

ZIONSVILLE +   FAIR      66  63  89 CALM      30.04F FOG
6HR MIN TEMP:  66; 6HR MAX TEMP:  82;


$$

INZ033-034-041-042-049-050-058-059-030700-
EAST CENTRAL INDIANA

CITY           SKY/WX    TMP DP  RH WIND       PRES   REMARKS
MUNCIE         FAIR      71  67  87 SW5       30.03F
6HR MIN TEMP:  68; 6HR MAX TEMP:  80;


$$

INZ060-061-067>069-081>083-085>088-030700-
SOUTHWEST INDIANA

CITY           SKY/WX    TMP DP  RH WIND       PRES   REMARKS
EVANSVILLE     FAIR      74  69  85 CALM      30.02F
6HR MIN TEMP:  73; 6HR MAX TEMP:  85;

HUNTINGBURG *+ FAIR      68  64  88 SE3       30.03S
6HR MIN TEMP:  68; 6HR MAX TEMP:  84;

WASHINGTON +   FAIR      67  64  87 CALM      30.01F
6HR MIN TEMP:  67; 6HR MAX TEMP:  80;


$$

INZ062-063-066-070>080-084-089>092-030700-
SOUTH CENTRAL AND SOUTHEAST INDIANA

CITY           SKY/WX    TMP DP  RH WIND       PRES   REMARKS
BLOOMINGTON    FAIR      67  65  93 CALM      30.03F FOG
6HR MIN TEMP:  66; 6HR MAX TEMP:  78;

NORTH VERNON + FAIR      70  70 100 CALM      30.04F FOG
SEYMOUR +      FAIR      66  64  94 CALM      30.02F FOG

$$




USA.gov is the U.S. government's official web portal to all federal, state and local government web resources and services.